Back to catalog

FREGAT R/B

LostHEO
NORAD 39156·ROCKET BODY·🇷🇺 Russia

Launched Apr 26, 2013 from Plesetsk Cosmodrome

Loading…

Next Passes (next 24 hours)

TLE

StaleSource: Space-Track

Epoch: Aug 5, 2026, 16:51 UTC

1 39156U 13019B   26217.70276564  .00000001  00000-0  00000+0 0  9993
2 39156  65.2722  79.8296 0068810  84.7501 276.1139  2.08291617100779

Track FREGAT R/B in real time with AllMySat

Download on the App Store